When you browse on this site, cookies collect data to enhance your experience and personalize the content and advertising you see.
Visit our Privacy Policy to learn more. By continuing to use the site, you agree to this use of cookies and data.
  • In Hungary
  • List of Countries
  • For 7 days
  • Water Temperature
  • Satellite Maps
  • Weather Map
  • News
  • Weather Widgets
  • user-avatar
    Login

    Hourly Weather Petropavlovka

    Today, 21 April, Sunday

    Time Temperature Precipitation Wind Pressure Humidity
    00:00 +6°C° 0 mm 2 mps 761 mmHg 52%
    01:00 +7°C° 0 mm 1 mps 761 mmHg 54%
    02:00 +6°C° 0 mm 1 mps 761 mmHg 56%
    03:00 +6°C° 0 mm 1 mps 761 mmHg 57%
    04:00 +6°C° 0 mm 1 mps 761 mmHg 58%
    05:00 +6°C° 0 mm 1 mps 761 mmHg 59%
    06:00 +7°C° 0 mm 2 mps 761 mmHg 54%
    07:00 +9°C° 0 mm 2 mps 761 mmHg 48%
    08:00 +11°C° 0 mm 3 mps 761 mmHg 41%
    09:00 +11°C° 0 mm 4 mps 761 mmHg 37%
    10:00 +12°C° 0 mm 4 mps 761 mmHg 33%
    11:00 +13°C° 0 mm 4 mps 761 mmHg 29%
    12:00 +14°C° 0 mm 4 mps 761 mmHg 29%
    13:00 +14°C° 0 mm 4 mps 761 mmHg 29%
    14:00 +15°C° 0 mm 4 mps 760 mmHg 29%
    15:00 +14°C° 0 mm 4 mps 760 mmHg 31%
    16:00 +14°C° 0 mm 4 mps 760 mmHg 33%
    17:00 +13°C° 0 mm 4 mps 760 mmHg 35%
    18:00 +13°C° 0 mm 3 mps 760 mmHg 39%
    19:00 +12°C° 0 mm 3 mps 761 mmHg 42%
    20:00 +11°C° 0 mm 3 mps 761 mmHg 45%
    21:00 +10°C° 0 mm 3 mps 761 mmHg 47%
    22:00 +10°C° 0 mm 3 mps 761 mmHg 49%
    23:00 +10°C° 0 mm 3 mps 761 mmHg 50%

    Tomorrow, 22 April, Monday

    Time Temperature Precipitation Wind Pressure Humidity
    00:00 +9°C° 0 mm 3 mps 762 mmHg 52%
    01:00 +8°C° 0 mm 2 mps 762 mmHg 53%
    02:00 +7°C° 0 mm 2 mps 762 mmHg 55%
    03:00 +7°C° 0 mm 2 mps 762 mmHg 56%
    04:00 +7°C° 0 mm 3 mps 762 mmHg 58%
    05:00 +5°C° 0 mm 3 mps 762 mmHg 59%
    06:00 +8°C° 0 mm 3 mps 762 mmHg 53%
    07:00 +10°C° 0 mm 4 mps 762 mmHg 46%
    08:00 +12°C° 0 mm 4 mps 763 mmHg 40%
    09:00 +13°C° 0 mm 5 mps 763 mmHg 38%
    10:00 +14°C° 0 mm 5 mps 763 mmHg 36%
    11:00 +15°C° 0 mm 5 mps 763 mmHg 34%
    12:00 +15°C° 0 mm 5 mps 762 mmHg 34%
    13:00 +15°C° 0 mm 5 mps 762 mmHg 34%
    14:00 +17°C° 0 mm 4 mps 762 mmHg 34%
    15:00 +15°C° 0 mm 4 mps 762 mmHg 36%
    16:00 +16°C° 0 mm 3 mps 762 mmHg 39%
    17:00 +16°C° 0 mm 3 mps 762 mmHg 41%
    18:00 +13°C° 0 mm 3 mps 762 mmHg 45%
    19:00 +12°C° 0 mm 3 mps 762 mmHg 48%
    20:00 +11°C° 0 mm 3 mps 763 mmHg 52%
    21:00 +10°C° 0 mm 3 mps 763 mmHg 53%
    22:00 +10°C° 0 mm 2 mps 763 mmHg 54%
    23:00 +9°C° 0 mm 2 mps 764 mmHg 56%

    Day after tomorrow, 23 April, Tuesday

    Time Temperature Precipitation Wind Pressure Humidity
    00:00 +9°C° 0 mm 2 mps 764 mmHg 56%
    01:00 +8°C° 0 mm 2 mps 764 mmHg 56%
    02:00 +8°C° 0 mm 2 mps 764 mmHg 57%
    03:00 +8°C° 0 mm 2 mps 764 mmHg 58%
    04:00 +9°C° 0 mm 1 mps 764 mmHg 59%
    05:00 +9°C° 0 mm 1 mps 765 mmHg 59%
    06:00 +11°C° 0 mm 1 mps 765 mmHg 54%
    07:00 +12°C° 0 mm 1 mps 765 mmHg 49%
    08:00 +14°C° 0 mm 2 mps 765 mmHg 44%
    09:00 +15°C° 0 mm 2 mps 765 mmHg 42%
    10:00 +16°C° 0 mm 2 mps 766 mmHg 39%
    11:00 +16°C° 0 mm 2 mps 766 mmHg 37%
    12:00 +16°C° 0 mm 2 mps 765 mmHg 37%
    13:00 +17°C° 0 mm 2 mps 765 mmHg 37%
    14:00 +17°C° 0 mm 2 mps 765 mmHg 36%
    15:00 +17°C° 0 mm 2 mps 765 mmHg 38%
    16:00 +17°C° 0 mm 2 mps 765 mmHg 40%
    17:00 +16°C° 0 mm 2 mps 765 mmHg 41%
    18:00 +16°C° 0 mm 1 mps 765 mmHg 44%
    19:00 +15°C° 0 mm 1 mps 765 mmHg 46%
    20:00 +14°C° 0 mm 1 mps 766 mmHg 48%
    21:00 +14°C° 0 mm 1 mps 766 mmHg 49%
    22:00 +14°C° 0 mm 1 mps 766 mmHg 50%
    23:00 +13°C° 0 mm 1 mps 766 mmHg 51%

    24 April, Wednesday

    Time Temperature Precipitation Wind Pressure Humidity
    00:00 +12°C° 0 mm 1 mps 766 mmHg 54%
    01:00 +11°C° 0 mm 1 mps 766 mmHg 56%
    02:00 +10°C° 0 mm 1 mps 766 mmHg 59%
    03:00 +10°C° 0 mm 1 mps 766 mmHg 60%
    04:00 +10°C° 0 mm 1 mps 766 mmHg 61%
    05:00 +9°C° 0 mm 0 mps 766 mmHg 62%
    06:00 +12°C° 0 mm 1 mps 766 mmHg 57%
    07:00 +13°C° 0 mm 1 mps 766 mmHg 52%
    08:00 +15°C° 0 mm 2 mps 766 mmHg 46%
    09:00 +16°C° 0 mm 2 mps 766 mmHg 43%
    10:00 +17°C° 0 mm 2 mps 766 mmHg 39%
    11:00 +18°C° 0 mm 2 mps 766 mmHg 36%
    12:00 +19°C° 0 mm 2 mps 766 mmHg 35%
    13:00 +19°C° 0 mm 2 mps 765 mmHg 34%
    14:00 +20°C° 0 mm 2 mps 765 mmHg 33%
    15:00 +20°C° 0 mm 2 mps 765 mmHg 34%
    16:00 +20°C° 0 mm 2 mps 765 mmHg 36%
    17:00 +20°C° 0 mm 2 mps 765 mmHg 38%
    18:00 +18°C° 0 mm 2 mps 765 mmHg 42%
    19:00 +18°C° 0 mm 1 mps 765 mmHg 46%
    20:00 +15°C° 0 mm 1 mps 765 mmHg 49%
    21:00 +15°C° 0 mm 1 mps 765 mmHg 51%
    22:00 +15°C° 0 mm 1 mps 765 mmHg 52%
    23:00 +14°C° 0 mm 2 mps 765 mmHg 53%

    25 April, Thursday

    Time Temperature Precipitation Wind Pressure Humidity
    00:00 +14°C° 0 mm 2 mps 765 mmHg 54%
    01:00 +14°C° 0 mm 2 mps 765 mmHg 55%
    02:00 +14°C° 0 mm 2 mps 765 mmHg 56%
    03:00 +13°C° 0 mm 2 mps 765 mmHg 60%
    04:00 +13°C° 0 mm 2 mps 765 mmHg 63%
    05:00 +12°C° 0 mm 2 mps 765 mmHg 67%
    06:00 +14°C° 0 mm 2 mps 765 mmHg 63%
    07:00 +16°C° 0 mm 3 mps 765 mmHg 58%
    08:00 +18°C° 0 mm 3 mps 765 mmHg 54%
    09:00 +20°C° 0 mm 3 mps 765 mmHg 49%
    10:00 +21°C° 0 mm 3 mps 765 mmHg 45%
    11:00 +22°C° 0 mm 3 mps 765 mmHg 41%
    12:00 +24°C° 0 mm 3 mps 765 mmHg 40%
    13:00 +24°C° 0 mm 3 mps 764 mmHg 38%
    14:00 +25°C° 0 mm 3 mps 764 mmHg 37%
    15:00 +24°C° 0 mm 2 mps 764 mmHg 39%
    16:00 +24°C° 0 mm 2 mps 763 mmHg 40%
    17:00 +24°C° 0 mm 2 mps 763 mmHg 42%
    18:00 +21°C° 0 mm 2 mps 763 mmHg 46%
    19:00 +21°C° 0 mm 1 mps 763 mmHg 50%
    20:00 +19°C° 0 mm 1 mps 763 mmHg 54%
    21:00 +19°C° 0 mm 1 mps 763 mmHg 55%
    22:00 +18°C° 0 mm 1 mps 763 mmHg 57%
    23:00 +16°C° 0 mm 1 mps 763 mmHg 59%

    26 April, Friday

    Time Temperature Precipitation Wind Pressure Humidity
    00:00 +16°C° 0 mm 1 mps 763 mmHg 60%
    01:00 +16°C° 0 mm 1 mps 762 mmHg 61%
    02:00 +15°C° 0 mm 1 mps 762 mmHg 62%
    03:00 +15°C° 0 mm 1 mps 762 mmHg 63%
    04:00 +15°C° 0 mm 1 mps 762 mmHg 65%
    05:00 +14°C° 0 mm 1 mps 762 mmHg 66%
    06:00 +16°C° 0 mm 1 mps 762 mmHg 61%
    07:00 +18°C° 0 mm 2 mps 762 mmHg 55%
    08:00 +20°C° 0 mm 2 mps 762 mmHg 50%
    09:00 +23°C° 0 mm 2 mps 762 mmHg 46%
    10:00 +24°C° 0 mm 2 mps 761 mmHg 41%
    11:00 +25°C° 0 mm 2 mps 761 mmHg 37%
    12:00 +25°C° 0 mm 2 mps 761 mmHg 37%
    13:00 +25°C° 0 mm 2 mps 760 mmHg 38%
    14:00 +25°C° 0 mm 2 mps 760 mmHg 38%
    15:00 +24°C° 0 mm 1 mps 760 mmHg 41%
    16:00 +24°C° 0 mm 1 mps 759 mmHg 43%
    17:00 +23°C° 0 mm 1 mps 759 mmHg 45%
    18:00 +23°C° 0 mm 1 mps 759 mmHg 47%
    19:00 +22°C° 0 mm 1 mps 759 mmHg 48%
    20:00 +21°C° 0 mm 1 mps 759 mmHg 49%
    21:00 +20°C° 0 mm 1 mps 759 mmHg 52%
    22:00 +19°C° 0 mm 2 mps 759 mmHg 54%
    23:00 +18°C° 0 mm 2 mps 758 mmHg 56%
    Show more